Temp
17 16 18 19 18 17 18 16 14 15 15 14 13 12 12 11 11 11 10 10 10 9 9 10 9 9 8 8 8 7 7 6 5 5 5 5 5 5 3 3 3 4 4 4
16 15 14 17 16 16 16 18 17 14 13 13 12 11 11 10 10 10 10 10 10 10 10 9 8 8 8 8 7 7 6 5 5 5 4 4 4 3 3 3 4 4 4 4
12 9 11 12 17 18 18 15 18 14 13 12 11 10 9 9 10 10 10 10 10 9 9 8 8 8 8 7 7 6 5 4 4 4 3 3 2 2 2 3 3 4 3 3
8 8 11 16 16 17 14 14 13 12 11 11 11 9 9 9 9 9 10 10 9 10 9 9 8 8 8 7 6 5 5 4 4 3 3 2 2 2 2 2 3 3 2 1
8 8 12 15 17 16 16 13 13 11 11 11 10 9 10 9 9 10 11 11 10 10 10 9 8 8 7 7 6 5 5 4 3 3 3 2 2 2 2 2 3 2 -0 -1
8 8 9 13 17 16 16 12 11 11 10 10 9 6 8 9 10 11 11 11 11 10 9 8 8 8 7 6 5 5 4 3 3 3 3 2 2 2 2 2 2 -0 -1 -2
6 5 8 12 14 16 12 12 11 10 9 9 8 7 8 9 10 11 11 10 9 9 8 8 7 6 6 5 5 4 3 3 3 2 2 3 3 3 2 1 -0 -1 -2 -3
5 6 10 12 15 13 12 10 9 9 9 8 9 9 9 10 10 9 8 8 8 8 7 7 6 6 6 5 4 4 3 2 1 2 2 2 2 3 2 0 -1 -2 -3 -4
10 10 12 13 14 13 10 9 9 8 9 9 9 9 9 8 7 7 7 7 7 6 6 6 5 5 5 5 4 3 3 2 1 1 1 2 2 1 0 -1 -1 -2 -3 -4
11 14 13 13 11 10 10 9 8 9 9 9 10 10 6 6 5 6 6 6 6 5 4 4 4 4 4 3 3 2 2 2 1 1 1 1 1 -0 -1 -1 -2 -3 -3 -4
11 13 12 12 12 9 9 9 9 9 9 10 8 6 6 5 5 5 5 5 4 4 3 3 3 2 2 2 2 2 1 1 1 0 0 0 -1 -1 -2 -2 -2 -3 -3 -4
12 13 13 11 9 9 9 9 10 10 8 7 7 5 6 4 5 4 4 4 3 3 2 2 1 1 1 1 1 -0 -0 0 0 0 -0 -1 -1 -2 -2 -2 -2 -3 -3 -4
12 12 12 11 9 10 10 10 9 8 7 5 6 6 5 4 4 4 4 3 2 2 2 1 1 -0 0 -0 -0 -1 -2 -1 -1 -0 -1 -1 -2 -2 -3 -2 -3 -3 -3 -4
12 10 10 10 9 10 10 9 8 7 6 6 5 5 4 4 4 4 3 2 2 1 1 -0 -1 -2 -1 -1 -1 -2 -2 -1 -1 -0 -1 -1 -1 -2 -2 -3 -3 -3 -3 -4
10 11 10 10 10 10 9 8 6 5 4 4 4 4 4 4 3 3 3 2 0 -0 -2 -2 -3 -2 -1 -1 -1 -2 -2 -1 -0 -1 -1 -1 -2 -2 -3 -3 -3 -3 -3 -4
10 10 10 10 10 9 7 6 5 4 4 4 4 4 4 3 2 2 1 0 -1 -2 -2 -2 -2 -1 -1 -1 -1 -2 -1 -1 -1 -1 -2 -2 -2 -2 -3 -3 -3 -3 -3 -4
8 8 8 8 6 6 6 5 5 4 4 4 4 4 3 2 1 1 1 -1 -1 -2 -2 -2 -1 -0 -1 -1 -1 -2 -1 -1 -1 -2 -2 -2 -2 -2 -3 -3 -3 -3 -4 -4
8 7 7 6 5 4 3 4 5 5 4 4 3 3 2 2 -0 -0 -0 -1 -1 -1 -1 -1 -0 -0 -1 -1 -1 -2 -2 -2 -1 -2 -2 -3 -3 -3 -3 -3 -3 -3 -3 -4
6 5 5 5 5 5 5 5 5 4 4 3 2 2 2 1 -0 -0 -0 -1 -1 -1 -0 -0 -1 -1 -1 -1 -1 -2 -2 -2 -2 -2 -3 -3 -3 -3 -3 -3 -3 -3 -3 -3
5 4 4 4 5 5 5 5 4 3 3 2 1 0 -1 1 0 0 0 -1 -0 1 -0 -1 -2 -3 -2 -2 -1 -2 -2 -2 -2 -3 -3 -3 -3 -3 -3 -3 -3 -3 -3 -4
3 4 5 5 4 4 3 3 2 2 2 1 -2 -2 -2 -0 0 0 -2 -3 0 -0 -1 -1 -1 -2 -2 -2 -2 -2 -2 -2 -2 -2 -3 -3 -3 -3 -3 -3 -3 -3 -4 -4
4 4 4 4 3 3 3 2 1 -0 -2 -2 -2 -2 -2 -2 -2 -1 -1 -1 -0 -0 -1 -1 -1 -1 -2 -2 -2 -2 -2 -2 -2 -3 -3 -3 -3 -3 -3 -3 -3 -4 -4 -4
4 4 4 3 3 3 2 2 2 1 1 1 0 1 -1 -1 -2 -2 -2 -1 -1 -1 -1 -1 -1 -1 -2 -2 -2 -2 -2 -2 -2 -3 -3 -3 -3 -3 -3 -3 -3 -3 -4 -4
4 4 4 3 3 2 0 4 3 3 3 3 3 2 -1 -1 -1 -1 -1 -1 -1 -1 -1 -1 -2 -2 -2 -2 -2 -3 -2 -2 -2 -3 -3 -3 -3 -4 -4 -3 -3 -3 -3 -4
4 3 3 3 2 2 3 3 2 3 2 1 2 0 0 -0 -1 -1 -1 -1 -1 -1 -2 -2 -2 -2 -2 -3 -3 -3 -2 -3 -3 -3 -3 -3 -4 -4 -4 -4 -4 -4 -4 -4
3 3 3 3 3 3 3 2 1 1 0 0 1 1 1 0 -1 -1 -1 -1 -2 -2 -3 -3 -3 -3 -3 -3 -3 -3 -3 -3 -3 -3 -3 -4 -4 -4 -4 -4 -4 -4 -4 -5
4 3 3 2 3 3 2 1 -1 -0 1 1 0 -1 -1 -1 -1 -1 -2 -3 -3 -3 -3 -4 -4 -4 -4 -4 -4 -3 -4 -4 -4 -4 -4 -4 -4 -4 -4 -4 -4 -5 -5 -5
Height
835 836 831 829 832 834 837 842 855 845 847 847 849 850 852 853 853 854 856 856 854 855 855 854 853 852 852 850 848 846 844 841 838 834 832 829 825 821 818 817 813 812 814 812
838 842 844 837 836 835 834 830 833 843 850 847 848 852 855 856 856 856 856 855 855 855 854 852 851 851 849 847 846 844 841 839 836 832 829 825 822 819 817 814 811 811 811 808
860 866 859 860 832 825 824 832 826 845 844 849 853 854 857 856 855 854 853 853 852 852 850 849 848 847 846 844 843 841 838 836 831 827 824 821 818 816 814 812 811 810 807 805
879 879 876 831 823 821 835 836 837 841 846 849 850 853 854 853 852 851 850 849 849 848 847 846 845 844 843 841 839 836 832 830 827 824 820 817 816 814 812 811 810 806 804 804
883 886 855 831 823 825 826 842 839 842 845 846 850 853 853 850 847 847 846 845 845 844 844 843 842 841 838 836 834 832 829 826 824 821 817 814 812 810 808 807 805 804 803 803
881 885 879 837 818 816 819 845 835 838 843 844 848 866 852 845 845 844 843 843 842 842 842 841 839 837 835 834 831 829 826 822 820 817 814 811 808 806 805 804 802 802 802 801
889 898 862 829 820 817 847 840 829 833 837 841 846 846 840 841 841 841 841 841 842 842 842 840 837 835 834 831 828 825 822 819 816 813 811 807 804 803 802 801 801 801 801 800
889 892 860 818 817 831 823 821 825 830 832 835 836 836 837 838 839 840 840 841 841 840 839 837 836 833 830 827 824 821 818 815 813 810 807 805 803 801 800 800 800 800 799 797
841 836 815 810 807 807 811 817 822 826 828 829 832 833 834 837 838 839 840 840 840 839 837 836 834 831 826 822 820 817 814 811 810 808 805 803 801 800 799 799 799 798 797 795
825 808 809 806 808 809 810 813 817 819 822 825 828 831 835 836 837 838 838 838 838 836 834 832 830 827 824 820 817 813 810 808 806 805 803 801 799 799 798 798 797 796 794 793
818 807 806 806 806 808 811 813 816 818 820 822 825 831 833 835 837 837 837 836 835 833 830 828 826 823 820 816 812 807 806 804 803 802 801 799 798 798 798 797 795 794 792 791
808 801 800 800 801 804 808 810 811 814 820 823 825 830 832 835 835 835 834 832 831 829 826 824 820 817 814 811 808 805 804 803 801 800 799 798 797 797 797 795 793 791 790 789
795 791 793 794 798 802 805 807 809 813 817 823 828 829 831 832 832 830 830 829 827 825 822 819 816 813 810 807 804 802 799 798 798 797 797 796 796 794 793 792 791 789 787 786
786 791 796 796 799 800 804 808 811 815 819 823 826 827 828 828 827 828 827 826 824 821 818 815 812 809 805 803 800 798 795 794 794 794 794 793 793 792 791 790 788 787 785 784
786 786 788 791 795 800 804 810 815 819 820 823 824 825 823 825 826 825 825 823 821 818 815 812 809 804 801 799 797 794 792 792 791 789 790 790 789 788 788 787 786 785 783 782
786 787 789 792 796 802 807 811 815 817 819 820 820 821 822 823 823 822 821 820 817 814 811 809 806 800 797 795 793 791 789 789 787 788 788 788 787 785 785 784 783 782 781 780
788 792 794 797 801 807 811 814 813 815 817 817 819 820 820 820 818 817 816 814 813 810 808 804 799 796 793 791 788 787 786 785 786 786 785 784 783 782 781 781 780 778 778 777
784 789 795 803 807 810 813 814 814 813 814 816 817 817 817 816 814 813 811 808 806 804 802 799 796 792 789 786 784 783 782 781 781 781 781 780 780 779 777 777 776 775 774 773
791 798 804 807 810 810 809 809 810 811 812 813 813 813 813 811 810 808 806 804 802 797 794 793 790 787 784 782 780 778 777 777 777 776 776 776 775 774 773 773 772 771 770 769
803 805 809 811 809 806 807 809 810 810 810 810 809 809 808 806 804 803 801 799 797 794 791 788 785 782 778 777 774 771 772 772 772 771 772 772 771 770 769 768 768 767 766 765
805 807 808 807 807 808 808 808 808 807 807 807 806 804 802 800 799 798 796 793 790 789 787 784 781 777 773 771 767 766 766 767 767 766 766 766 765 765 764 763 762 762 762 761
805 806 807 808 809 809 807 806 805 804 804 803 801 800 798 796 794 792 792 790 785 783 782 779 776 772 768 765 762 761 761 761 760 760 760 760 759 758 758 757 756 756 757 756
807 807 808 808 807 806 805 803 802 801 800 798 796 794 793 792 790 789 785 783 781 778 776 773 770 767 763 760 757 755 755 755 755 754 753 752 752 751 751 750 750 750 750 751
807 807 806 806 805 804 802 800 799 797 795 793 791 789 788 786 786 785 783 779 776 774 771 768 765 762 759 755 752 751 749 747 746 745 744 744 744 743 743 743 742 742 743 743
806 806 805 804 803 801 799 796 794 792 790 788 786 785 785 784 783 779 777 774 772 770 766 763 760 757 754 751 748 745 743 741 739 737 735 734 733 733 733 734 734 734 735 735
805 804 803 802 800 797 795 793 790 788 786 784 782 781 780 779 777 774 772 770 768 765 762 759 756 753 750 747 744 741 738 735 732 730 727 725 723 722 722 723 724 726 726 727
803 802 800 798 796 794 791 788 786 783 781 779 776 775 774 773 770 769 767 766 764 761 758 756 753 750 746 743 740 736 733 730 727 723 720 718 715 713 712 713 714 716 718 719
Wind_Speed
2 4 1 1 2 1 4 4 5 7 6 6 6 7 7 7 7 8 6 5 5 3 4 7 11 12 13 15 18 19 21 23 21 23 20 14 16 18 15 16 11 8 9 14
1 5 6 3 5 5 4 4 4 9 6 4 6 8 7 6 6 5 3 2 3 3 5 7 8 7 10 12 13 14 18 17 21 21 19 14 14 14 14 15 8 7 16 14
3 5 6 5 5 3 2 4 3 6 6 5 5 6 6 6 6 5 3 4 3 4 3 7 4 5 8 9 10 10 11 13 19 20 18 18 17 14 18 12 14 16 11 5
2 4 1 5 5 4 9 3 11 11 7 6 7 5 6 5 6 6 6 4 1 2 3 3 1 5 7 6 7 11 11 16 18 18 20 19 11 13 11 14 17 8 2 3
3 3 5 6 4 6 5 3 4 8 7 5 7 5 4 6 6 5 4 2 4 3 5 6 4 6 7 7 9 13 14 15 17 18 18 16 16 20 16 21 7 2 2 5
3 4 6 6 2 4 5 4 9 7 8 7 7 3 4 7 4 4 4 4 4 3 5 4 10 13 9 8 10 12 14 16 17 16 18 20 21 23 20 7 1 5 5 7
3 2 8 7 6 1 5 7 9 8 7 7 5 5 4 1 2 4 3 4 7 6 6 13 14 7 8 10 11 11 12 17 17 16 15 14 11 7 7 2 7 5 6 7
3 2 7 7 5 7 6 3 7 6 6 6 6 5 4 3 2 8 12 13 13 13 13 10 10 16 15 14 12 11 15 16 14 13 13 12 12 10 4 7 5 4 7 7
9 7 5 6 6 3 6 6 6 7 6 7 6 4 6 4 8 12 10 11 11 11 10 11 19 22 17 16 12 15 13 10 9 12 11 13 7 1 4 4 3 4 5 6
3 5 7 7 2 5 5 6 6 7 7 7 5 5 7 6 7 8 8 9 10 12 15 17 22 17 13 15 18 20 14 9 10 9 11 11 8 3 4 3 4 3 4 5
4 4 2 2 3 7 7 7 7 7 7 7 10 7 7 5 6 4 5 8 14 17 18 20 21 21 23 20 21 22 15 9 6 6 8 6 6 5 7 6 4 5 5 4
7 7 6 5 7 8 9 8 8 8 8 11 13 7 9 6 3 3 7 15 18 19 20 20 22 26 24 15 18 11 12 12 7 6 5 4 4 5 7 7 7 7 7 5
5 6 5 3 9 8 7 7 7 13 16 10 11 11 7 3 2 8 13 18 19 21 21 21 26 24 24 18 19 21 18 15 12 6 2 2 2 7 11 10 9 8 8 6
4 7 3 4 6 8 11 14 20 19 19 16 12 7 4 5 9 10 15 18 20 21 22 25 23 24 23 18 17 20 14 10 13 13 7 4 2 7 9 9 11 10 9 6
8 2 6 7 7 10 18 18 11 8 10 9 6 5 10 8 8 13 18 19 20 20 19 20 19 23 21 18 17 16 13 10 14 10 5 4 6 6 5 8 9 8 8 7
6 6 7 9 11 11 10 8 9 5 5 4 5 7 7 8 12 17 17 16 16 19 21 21 20 23 21 19 16 15 11 13 6 5 5 7 9 5 6 6 8 8 8 8
7 6 9 10 10 6 6 6 8 6 4 1 3 5 8 13 16 17 18 15 15 18 20 21 23 22 20 19 15 13 12 11 8 9 8 9 9 8 9 7 11 11 11 8
13 14 15 11 9 8 6 6 6 2 2 4 5 8 13 15 15 17 17 16 18 18 18 18 20 22 23 19 17 14 14 12 15 14 12 11 14 12 10 8 10 10 10 8
23 17 14 12 10 9 6 2 3 5 8 9 9 12 14 16 15 14 15 14 18 21 23 22 21 20 21 19 19 15 16 16 15 15 13 11 14 13 12 11 11 9 11 12
14 17 11 7 4 7 5 5 7 10 11 10 12 14 15 16 11 13 15 19 20 22 20 23 20 25 19 22 22 18 16 16 15 14 13 12 15 15 12 13 12 11 11 10
12 8 7 6 6 6 7 9 10 12 12 11 11 13 13 16 14 14 18 15 24 17 17 22 25 27 22 24 20 17 18 18 19 19 19 17 16 15 16 14 14 13 10 9
6 5 6 6 6 9 9 9 9 10 11 13 14 16 14 16 17 18 16 18 23 17 21 24 26 26 23 23 21 17 17 20 22 22 24 24 19 17 17 17 15 13 13 12
2 5 7 8 9 10 13 14 14 15 16 18 18 19 18 16 14 12 15 19 22 23 25 26 26 25 23 22 20 18 19 21 22 24 26 25 25 22 19 19 18 17 17 15
8 9 10 11 10 11 13 18 17 16 17 18 19 18 15 15 13 14 16 21 21 21 23 25 23 23 23 21 21 20 24 26 27 29 30 26 25 25 25 24 24 22 21 20
7 9 11 12 12 16 18 20 19 18 18 17 14 10 7 10 15 19 20 23 22 21 23 23 22 22 22 22 20 22 24 26 29 31 32 32 29 28 26 26 25 23 20 17
13 14 15 13 13 15 18 18 14 12 9 13 14 15 15 15 15 18 21 19 18 19 19 18 21 22 22 20 20 22 25 28 29 30 30 30 31 31 30 28 26 24 24 23
13 14 15 18 19 20 18 14 10 14 16 18 19 18 18 17 16 15 15 15 16 17 17 19 19 20 19 20 23 24 22 23 25 28 29 30 31 31 31 30 26 25 22 21
Wind_Direction
68 39 37 240 120 94 187 199 163 240 206 139 142 132 125 119 105 82 62 42 27 17 101 82 51 58 35 21 15 8 359 356 359 354 350 324 292 280 266 277 290 248 291 318
103 14 18 325 309 262 231 216 231 107 74 89 90 97 103 119 111 104 97 28 305 5 112 62 90 54 24 14 9 2 354 352 344 344 328 308 283 264 296 291 286 317 311 308
254 12 354 356 226 221 110 7 224 186 165 143 123 133 152 151 147 151 175 235 274 137 118 130 100 32 4 352 347 345 342 341 341 341 325 316 306 293 298 293 329 285 309 308
199 27 33 249 308 160 108 88 109 106 131 145 162 170 158 180 172 192 226 253 135 152 149 160 268 330 326 305 324 337 336 336 336 332 325 318 312 321 317 318 287 306 302 3
129 191 297 314 178 163 165 205 181 141 153 151 157 130 226 208 199 208 224 254 177 268 207 215 252 297 293 310 325 327 323 325 327 327 322 313 296 302 291 310 310 256 64 19
147 137 218 235 215 132 93 288 186 165 172 168 138 172 238 211 228 244 274 252 241 281 241 263 329 326 304 311 320 315 317 322 321 315 311 308 306 307 308 293 246 136 87 33
143 213 287 241 242 108 103 238 170 174 170 168 186 199 205 232 288 239 294 13 24 28 7 334 332 344 328 316 302 305 317 322 313 310 317 327 341 342 311 234 151 111 46 46
110 90 281 190 106 166 203 139 158 168 177 180 192 206 229 198 219 53 51 56 28 11 359 3 5 338 317 301 289 300 321 325 322 327 339 323 319 316 283 148 120 68 36 32
182 211 239 219 197 192 154 149 176 162 172 182 189 213 167 86 82 80 56 35 20 5 357 346 338 332 303 310 292 301 307 319 328 331 348 346 344 335 157 127 64 48 29 23
96 241 221 224 83 149 163 163 159 170 174 174 174 162 103 103 92 66 32 22 1 350 342 333 338 333 323 322 319 294 282 298 319 330 345 348 341 118 100 68 36 24 13 10
253 272 38 347 203 161 153 149 168 178 184 177 116 116 123 108 98 44 24 4 353 343 333 328 332 333 328 321 324 301 260 281 308 332 354 11 104 76 26 6 352 345 345 348
243 216 212 213 186 165 158 184 191 167 95 105 122 126 127 123 84 36 5 354 343 333 325 325 327 329 331 312 325 327 289 295 296 328 339 143 98 36 16 350 341 337 333 321
233 212 208 182 162 168 181 205 145 123 129 122 121 125 120 120 42 4 349 341 334 324 319 319 324 323 327 312 317 318 297 277 281 286 253 270 286 2 348 343 346 348 329 309
175 113 72 158 193 185 142 113 112 116 119 120 121 99 77 31 357 338 328 328 326 321 317 322 320 319 327 320 313 319 306 273 281 275 259 287 310 329 315 324 335 336 341 311
178 234 178 157 133 122 121 120 116 119 119 115 106 70 18 349 310 311 318 324 324 321 324 324 319 317 331 324 315 310 305 287 307 268 235 263 276 297 293 319 320 318 326 317
161 146 131 136 125 112 115 105 120 124 133 127 49 9 328 297 295 307 314 329 329 323 322 322 317 318 328 320 308 299 300 299 296 219 274 280 287 289 290 300 311 304 302 309
138 152 119 97 96 103 108 123 119 132 128 53 303 301 297 296 302 306 319 327 327 321 318 317 313 325 322 318 300 293 282 280 277 281 286 293 296 286 279 285 300 299 290 288
90 95 109 124 134 131 107 138 155 162 257 287 270 289 297 298 295 302 316 322 323 321 320 317 321 318 323 317 308 285 277 270 279 282 280 296 303 304 260 278 293 295 306 281
84 89 103 100 98 129 141 95 354 299 284 284 283 285 293 290 294 299 318 308 312 311 314 327 320 319 317 313 306 275 258 273 276 276 276 279 293 292 272 265 282 282 295 294
100 90 108 142 83 43 6 314 302 287 287 287 286 286 289 293 296 295 299 284 293 302 317 326 324 323 302 322 309 277 251 262 271 273 269 276 293 295 285 265 263 277 292 306
122 118 80 42 9 332 308 305 296 285 294 284 279 277 280 295 297 288 293 296 311 320 321 325 323 325 312 318 308 284 250 257 263 265 263 268 279 286 281 273 267 259 274 291
103 72 23 359 328 313 324 311 294 291 291 289 279 271 271 280 295 305 309 296 316 313 314 318 320 324 318 314 308 278 263 266 268 267 268 266 266 272 278 273 272 249 277 282
356 336 320 307 302 310 320 320 312 300 291 289 286 287 277 273 281 294 305 320 320 311 313 308 316 317 317 313 306 281 264 264 266 269 270 266 263 262 264 268 264 263 263 268
334 327 317 319 308 298 298 312 310 304 299 300 298 291 272 275 285 301 311 320 319 322 319 317 315 313 320 312 303 292 277 268 266 269 272 271 268 263 260 261 263 262 264 260
327 325 320 315 307 300 308 312 314 316 317 320 316 303 302 294 289 305 319 317 316 318 319 318 318 316 318 318 302 295 292 286 281 275 271 268 260 260 260 260 260 259 262 264
319 311 312 313 309 310 314 316 304 316 325 324 314 299 297 296 292 304 311 312 317 323 326 324 328 319 311 318 318 309 295 293 289 283 277 266 261 259 258 257 257 258 261 259
337 333 327 323 327 328 325 314 299 305 310 305 296 301 304 302 305 308 309 315 321 324 331 336 340 342 340 328 320 309 308 307 301 291 282 273 263 258 258 259 254 255 257 254